[[{"header":{"parameterUnit":"m.s-1","parameterCategory":1,"la1":30.2991,"la2":30.254,"lo1":-89.0895,"lo2":-89.0444,"dy":0.0017,"dx":0.0017,"nx":28,"ny":28,"refTime":"2025-07-11T21:00:00:Z","depth":0,"parameterNumber":2,"parameterNumberName":"U-component_of_WINDS"},"data":[0,0,0,0,0,0,0,0,0,0,0,0,0,0,0,0,0,0,0,0,0,0,0,0,0,0,0,0,0,0,0,0,0,0,0,0,0,0,0,0,0,0,0,0,0,0,0,0,0,0,0,0,0,0,0,0,0,0,1.8695,1.8696,0,1.884,1.8842,1.8843,1.8871,1.887,1.8868,1.8867,1.9021,1.9026,1.9032,0,0,0,0,0,0,0,0,0,0,0,0,0,1.8444,1.8449,1.8694,1.8696,1.8698,1.884,1.8842,1.8844,1.8871,1.887,1.8868,1.8867,1.902,1.9026,1.9032,0,0,0,0,0,0,0,0,0,0,0,0,0,1.8568,1.845,1.8694,1.8729,1.8733,1.8839,1.8842,1.8844,1.8871,1.887,1.8868,1.8866,1.9018,1.9025,1.9033,1.9117,0,0,1.9057,1.906,0,0,0,0,0,0,0,0,1.8561,1.8577,1.8722,1.8726,1.8732,1.8835,1.881,1.8936,1.8872,1.8819,1.8867,1.8865,1.8961,1.8974,1.9005,1.9124,1.913,1.9057,1.9062,1.9066,1.9068,0,0,0,0,0,0,0,1.8552,1.8571,1.8752,1.8724,1.873,1.8738,1.8754,1.8834,1.8899,1.8823,1.8826,1.8842,1.8964,1.8997,1.9009,1.9133,1.9057,1.9064,1.9069,1.9072,1.9328,1.933,0,0,0,0,0,0,1.8537,1.8564,1.8748,1.8757,1.864,1.8744,1.8762,1.8804,1.8898,1.891,1.8844,1.8843,1.8985,1.9,1.9014,1.9119,1.9066,1.9073,1.9077,1.9326,1.9328,1.9331,0,0,0,0,0,0,1.8531,1.8553,1.8742,1.8661,1.8685,1.875,1.8798,1.8808,1.8841,1.8913,1.8925,1.8866,1.8984,1.9003,1.9091,1.9124,1.9076,1.9083,1.9323,1.9327,1.9329,1.9327,0,0,0,0,0,0,1.8524,1.8551,1.8582,1.8661,1.869,1.8814,1.88,1.8812,1.8854,1.8855,1.8937,1.8949,1.8984,1.9079,1.9098,1.9134,1.909,1.9321,1.9325,1.9328,1.9325,1.933,1.9335,0,0,0,0,0,1.8515,1.8577,1.8584,1.8606,1.873,1.8816,1.8832,1.887,1.8857,1.889,1.8935,1.8946,1.9117,1.9088,1.911,1.9148,1.9319,1.9324,1.9328,1.9322,1.9329,1.9334,0,0,0,0,0,0,1.8502,1.8588,1.8596,1.8685,1.8743,1.882,1.8863,1.8876,1.894,1.8938,1.8984,1.9002,1.9087,1.9127,1.9092,1.9234,1.9217,1.9227,1.9205,1.9212,1.9217,1.9206,1.9096,0,0,0,0,0,1.8509,1.8571,1.8643,1.8715,1.8743,1.8798,1.8837,1.8861,1.8923,1.8948,1.9,1.9062,1.9129,1.9173,1.9239,1.933,1.9349,1.9368,1.9373,1.9376,1.9384,1.9436,1.9445,1.9346,1.9346,1.9346,0,0,1.8526,1.858,1.8616,1.8713,1.8761,1.8824,1.8818,1.8886,1.8934,1.8959,1.9044,1.9084,1.9156,1.9246,1.9288,1.9281,1.9416,1.9383,1.9385,1.9391,1.9442,1.9451,1.9459,1.9349,1.9349,1.9348,0,0,1.8587,1.8634,1.8699,1.8746,1.8818,1.8854,1.8869,1.8945,1.8972,1.9058,1.9077,1.9136,1.9251,1.9302,1.9342,1.9422,1.9435,1.9443,1.9469,1.9518,1.9526,1.9533,1.9562,1.9572,1.945,1.945,1.945,0,1.8599,1.8694,1.8731,1.8798,1.884,1.8864,1.893,1.8975,1.9065,1.9094,1.9085,1.923,1.928,1.9381,1.9401,1.9433,1.9453,1.9434,1.9522,1.9529,1.9537,1.9565,1.9575,1.9451,1.9451,1.945,1.945,0,1.8705,1.8771,1.8815,1.8899,1.8946,1.9013,1.9061,1.9105,1.9125,1.9162,1.9249,1.931,1.9388,1.9414,1.9435,1.9519,1.9513,1.9512,1.9496,1.9546,1.9573,1.9584,1.9451,1.9451,1.9451,1.9451,0,0,1.8763,1.8866,1.8882,1.892,1.9,1.9053,1.9121,1.9196,1.9233,1.9294,1.9352,1.9449,1.9449,1.9495,1.9521,1.9565,1.9624,1.9559,1.9561,1.9569,1.9721,1.9721,1.9733,1.9633,1.9635,1.9637,1.9715,0,1.8835,1.8955,1.899,1.9091,1.9153,1.9176,1.9235,1.9291,1.9328,1.9387,1.9428,1.9495,1.949,1.9518,1.9562,1.9608,1.9656,1.9602,1.9689,1.9692,1.967,1.9747,1.9748,1.9818,1.9726,1.9728,1.9729,0,1.8935,1.8996,1.9103,1.9174,1.9202,1.9254,1.9325,1.9381,1.9446,1.9469,1.952,1.9543,1.9615,1.9594,1.9696,1.9659,1.9697,1.9725,1.9728,1.9738,1.9713,1.9759,1.9842,1.9853,1.9746,1.9745,1.9744,0,1.8967,1.9076,1.9154,1.9186,1.9272,1.9308,1.9346,1.9408,1.9451,1.9514,1.9543,1.9614,1.9653,1.9709,1.975,1.9731,1.9848,1.9831,1.9871,1.987,1.9895,1.9893,1.9985,1.9919,1.9918,1.9918,1.9918,0,1.9043,1.9108,1.9169,1.9217,1.9291,1.9331,1.9403,1.9442,1.9497,1.9554,1.9579,1.9632,1.9684,1.9744,1.9778,1.9857,1.9874,1.9896,1.9905,1.9894,1.9892,1.992,1.9916,1.9921,1.9921,1.992,1.9919,0,1.9092,1.9135,1.9222,1.9295,1.9315,1.9366,1.943,1.9478,1.9515,1.9587,1.9606,1.9665,1.9737,1.9784,1.9877,1.9899,1.9986,1.9993,1.9963,1.9967,2.0005,2.0001,2.0119,2.0136,2.0058,2.0058,2.0059,0,1.9138,1.9188,1.9266,1.9305,1.9342,1.9405,1.9448,1.949,1.9535,1.9611,1.9651,1.9724,1.9785,1.99,1.9952,2.0023,2.0032,2.0069,2.0043,2.0031,2.0033,2.0029,2.0035,2.0073,2.0073,2.0074,2.0074,0,1.9215,1.9234,1.9294,1.9363,1.9413,1.9469,1.9526,1.9557,1.9608,1.9657,1.973,1.9777,1.9871,1.9944,2.002,2.0061,2.0077,2.0082,2.0095,2.0085,2.0066,2.0077,1.9975,2.0079,2.0079,2.0078,2.0078,2.0078,1.9264,1.9309,1.9371,1.9438,1.9484,1.9536,1.9584,1.9627,1.9688,1.9767,1.9788,1.9865,1.9928,2.0031,2.0073,2.0134,2.013,2.0149,2.0154,2.0158,2.0158,2.0056,2.0149,2.0148,2.0148,2.0148,2.0148,0,1.9342,1.9383,1.9444,1.9521,1.9574,1.9582,1.9645,1.9689,1.9755,1.9812,1.9871,1.9956,2.0026,2.0083,2.0157,2.0195,2.0204,2.0213,2.0211,2.022,2.0158,2.0139,2.0204,2.0204,2.0204,2.0204,2.0204,2.0204,1.9389,1.9466,1.9492,1.9593,1.9634,1.9708,1.9743,1.9791,1.9837,1.9929,1.9987,2.0023,2.0081,2.0158,2.0224,2.0239,2.0265,2.0272,2.0289,2.023,2.0224,2.0218,2.0201,2.0277,2.0277,2.0345,2.0346,2.0346]},{"header":{"parameterUnit":"m.s-1","parameterCategory":1,"la1":30.2991,"la2":30.254,"lo1":-89.0895,"lo2":-89.0444,"dy":0.0017,"dx":0.0017,"nx":28,"ny":28,"refTime":"2025-07-11T21:00:00:Z","depth":0,"parameterNumber":3,"parameterNumberName":"V-component_of_WINDS"},"data":[0,0,0,0,0,0,0,0,0,0,0,0,0,0,0,0,0,0,0,0,0,0,0,0,0,0,0,0,0,0,0,0,0,0,0,0,0,0,0,0,0,0,0,0,0,0,0,0,0,0,0,0,0,0,0,0,0,0,2.3844,2.3843,0,2.3795,2.3794,2.3794,2.3799,2.38,2.3801,2.3801,2.3745,2.3743,2.3741,0,0,0,0,0,0,0,0,0,0,0,0,0,2.3934,2.3932,2.3844,2.3843,2.3842,2.3795,2.3794,2.3794,2.3799,2.38,2.3801,2.3802,2.3746,2.3744,2.3741,0,0,0,0,0,0,0,0,0,0,0,0,0,2.3891,2.3932,2.3844,2.3839,2.3839,2.3795,2.3794,2.3794,2.3799,2.38,2.3801,2.3802,2.3747,2.3744,2.374,2.3696,0,0,2.373,2.3729,0,0,0,0,0,0,0,0,2.3893,2.3887,2.3841,2.384,2.3839,2.3804,2.3806,2.3761,2.3798,2.3814,2.3801,2.3803,2.3764,2.3759,2.3747,2.3694,2.3691,2.373,2.3728,2.3727,2.3726,0,0,0,0,0,0,0,2.3896,2.3889,2.3824,2.384,2.3839,2.3838,2.3833,2.3797,2.3782,2.3812,2.3813,2.3807,2.3763,2.375,2.3746,2.3691,2.373,2.3727,2.3725,2.3724,2.3595,2.3594,0,0,0,0,0,0,2.3901,2.3892,2.3826,2.3823,2.387,2.3835,2.383,2.3814,2.3783,2.3779,2.3806,2.3808,2.3755,2.375,2.3744,2.3688,2.3727,2.3723,2.3722,2.3596,2.3595,2.3593,0,0,0,0,0,0,2.3903,2.3895,2.3828,2.3857,2.3849,2.3832,2.3815,2.3813,2.38,2.3778,2.3775,2.3796,2.3756,2.3749,2.3708,2.3686,2.3722,2.3719,2.3598,2.3596,2.3594,2.3577,0,0,0,0,0,0,2.3906,2.3896,2.3881,2.3857,2.3847,2.3795,2.3814,2.3811,2.3795,2.3796,2.3768,2.3764,2.3757,2.3713,2.3705,2.3682,2.3716,2.36,2.3597,2.3595,2.3579,2.3575,2.3571,0,0,0,0,0,2.3909,2.3877,2.388,2.3872,2.3828,2.3794,2.3788,2.3781,2.3793,2.3776,2.3762,2.3765,2.369,2.3709,2.3699,2.3676,2.3601,2.3598,2.3595,2.3582,2.3576,2.3571,0,0,0,0,0,0,2.3897,2.3874,2.3877,2.3837,2.3818,2.3795,2.3773,2.3775,2.375,2.3752,2.3743,2.3736,2.3695,2.3681,2.3702,2.363,2.3647,2.3642,2.364,2.3634,2.363,2.3633,2.3714,0,0,0,0,0,2.389,2.3866,2.3847,2.3813,2.3803,2.379,2.3775,2.3771,2.3749,2.3741,2.3724,2.37,2.3671,2.3652,2.3625,2.3578,2.357,2.3557,2.3552,2.3549,2.3544,2.3515,2.3508,2.3583,2.3583,2.3583,0,0,2.3875,2.386,2.3845,2.381,2.3795,2.3767,2.3783,2.3754,2.3732,2.3735,2.3696,2.3682,2.3656,2.3611,2.3591,2.3599,2.3521,2.3545,2.3542,2.3539,2.3511,2.3504,2.3497,2.358,2.3581,2.3581,0,0,2.3833,2.3821,2.379,2.3774,2.3751,2.3742,2.3734,2.3711,2.3702,2.3663,2.3664,2.3637,2.3588,2.3568,2.3552,2.3501,2.3501,2.3492,2.3468,2.3439,2.3434,2.3428,2.3407,2.34,2.3487,2.3487,2.3487,0,2.3817,2.3778,2.3774,2.3744,2.3728,2.3731,2.3698,2.3682,2.365,2.3637,2.3647,2.3584,2.3567,2.3516,2.3503,2.3491,2.348,2.3494,2.3435,2.343,2.3425,2.3404,2.3397,2.3486,2.3486,2.3486,2.3486,0,2.3757,2.373,2.3708,2.3678,2.3659,2.3628,2.3617,2.3598,2.3596,2.3585,2.3543,2.3522,2.3489,2.3477,2.3474,2.3425,2.343,2.3438,2.3454,2.3416,2.3397,2.3389,2.3484,2.3485,2.3485,2.3485,0,0,2.3706,2.3675,2.3666,2.3651,2.3625,2.3602,2.357,2.354,2.3522,2.3499,2.347,2.3428,2.3434,2.3415,2.341,2.3386,2.3343,2.3396,2.3395,2.3384,2.3283,2.3276,2.3267,2.3344,2.3342,2.3341,2.3284,0,2.366,2.3605,2.36,2.355,2.3522,2.3524,2.3496,2.3475,2.3463,2.3437,2.3423,2.3392,2.3405,2.3393,2.3369,2.3353,2.3322,2.3357,2.3313,2.3311,2.3318,2.3258,2.325,2.3198,2.3277,2.3276,2.3275,0,2.3599,2.3575,2.3523,2.3498,2.3486,2.3461,2.3431,2.3407,2.3382,2.3375,2.3353,2.3351,2.3314,2.3334,2.3281,2.3306,2.3287,2.3276,2.3274,2.3267,2.329,2.3247,2.3181,2.3172,2.3264,2.3264,2.3265,0,2.3564,2.3519,2.3481,2.3469,2.344,2.3421,2.3408,2.3385,2.3366,2.3339,2.3326,2.3294,2.3276,2.3251,2.3238,2.3254,2.3185,2.3205,2.3176,2.3176,2.316,2.316,2.3087,2.3152,2.3152,2.3152,2.3152,0,2.3511,2.3478,2.3465,2.3441,2.3403,2.3396,2.3358,2.3345,2.3324,2.3295,2.3295,2.3268,2.3255,2.3224,2.3214,2.317,2.3163,2.3154,2.3151,2.3153,2.3153,2.3139,2.3141,2.315,2.315,2.3151,2.3151,0,2.3465,2.3455,2.3413,2.3389,2.3382,2.3355,2.3333,2.3309,2.3298,2.3261,2.3252,2.3234,2.3198,2.3184,2.314,2.3133,2.3082,2.3083,2.3091,2.3089,2.306,2.3062,2.2973,2.296,2.3035,2.3035,2.3034,0,2.3431,2.3406,2.3379,2.3361,2.3347,2.3318,2.3299,2.3291,2.327,2.3239,2.3217,2.3182,2.3153,2.3096,2.3076,2.3042,2.3041,2.3012,2.3035,2.3037,2.3037,2.3037,2.3033,2.3007,2.3006,2.3005,2.3005,0,2.3371,2.3367,2.3341,2.3311,2.3289,2.3265,2.3242,2.3227,2.3214,2.319,2.3155,2.3133,2.3088,2.3051,2.3016,2.2999,2.2998,2.2998,2.2989,2.2989,2.2993,2.2988,2.3076,2.3,2.3,2.3,2.3001,2.3001,2.3328,2.3305,2.3282,2.3251,2.3233,2.3211,2.3187,2.3172,2.3143,2.3108,2.3104,2.3064,2.3037,2.2989,2.2971,2.2938,2.2945,2.2933,2.2929,2.2925,2.2922,2.3001,2.2932,2.2932,2.2932,2.2932,2.2932,0,2.3265,2.3251,2.3223,2.3191,2.3166,2.3171,2.3145,2.3123,2.3089,2.3065,2.3037,2.2994,2.2959,2.2937,2.29,2.2878,2.2876,2.2868,2.2868,2.2864,2.2919,2.293,2.287,2.287,2.287,2.287,2.287,2.287,2.323,2.319,2.3183,2.3133,2.3118,2.3081,2.3065,2.3043,2.3024,2.2977,2.2948,2.2935,2.291,2.2871,2.2838,2.2832,2.2817,2.2808,2.2802,2.2854,2.286,2.2866,2.2876,2.2805,2.2805,2.2749,2.2748,2.2748]}]]